GFSGBSN_850_spd_000.txt.gz
Wind_Speed
13 11 10 10 10 13 14 15 14 14 13 12 12 11 11 10 11 11 11 11 14 15 11 8 11 13 9 8 2 5 8 5 3 1 8 11 16 17 9 8 9 7 5 9 8 7 2
12 10 9 8 10 12 12 12 12 11 10 9 9 9 9 9 10 12 13 16 17 13 9 8 13 12 9 11 1 1 3 3 4 8 8 6 6 4 4 7 7 9 8 10 10 7 4
11 9 7 7 9 10 10 9 9 7 6 5 7 7 9 10 12 14 18 20 15 10 8 10 14 14 9 6 1 2 1 4 2 7 6 2 5 6 3 3 2 8 9 7 8 8 5
11 8 6 6 7 7 6 6 5 4 3 1 3 7 10 13 16 20 22 17 12 8 7 11 16 13 7 4 1 4 3 4 2 2 3 3 4 8 6 8 6 9 10 10 12 9 7
10 8 5 5 5 5 3 2 2 2 3 2 4 9 13 18 22 23 18 13 9 7 7 11 13 11 6 1 3 1 3 5 3 2 1 3 4 6 2 9 9 9 10 9 9 7 1
9 8 5 4 4 2 2 1 1 1 3 3 6 10 16 20 21 18 15 11 8 9 9 8 10 8 4 2 2 3 3 3 3 3 5 6 8 8 10 8 3 10 11 6 4 9 6
10 7 5 3 3 2 3 2 1 2 4 5 7 11 15 17 17 16 15 12 7 4 11 8 11 2 6 5 6 3 4 5 4 7 10 6 8 7 12 8 7 10 7 7 14 7 3
10 7 6 4 2 2 4 3 2 3 5 6 7 10 13 15 15 15 12 6 5 7 7 5 6 5 2 5 7 6 2 6 5 11 0 5 6 8 6 7 6 6 5 6 6 5 5
10 8 6 4 2 2 4 5 4 5 6 7 7 9 12 14 13 12 6 3 3 8 6 4 4 5 2 1 6 2 7 5 8 8 5 13 10 5 4 5 8 3 6 9 8 7 8
10 9 7 5 2 2 5 7 7 8 8 8 8 10 12 11 7 7 3 2 5 2 4 7 5 3 2 3 4 1 4 4 3 5 8 8 4 3 1 5 8 3 6 5 8 7 7
10 9 8 5 3 3 5 8 9 10 10 9 8 9 11 12 3 7 4 6 2 7 3 3 5 2 4 3 6 5 2 6 2 3 4 5 4 5 4 6 6 6 5 6 8 9 10
12 10 8 6 3 3 4 9 11 12 13 12 9 8 9 2 2 2 5 5 5 3 2 5 5 7 6 3 2 5 3 5 3 3 11 7 3 7 6 4 2 6 9 9 8 9 3
13 10 8 6 4 3 4 9 13 14 15 14 11 9 7 4 3 5 7 6 3 2 6 7 9 7 8 5 6 6 5 5 3 4 5 8 6 5 8 10 5 8 8 4 2 2 3
14 11 8 7 4 2 3 9 13 15 16 15 13 10 8 5 5 8 5 6 6 3 6 8 9 10 8 6 5 1 10 9 9 12 5 7 6 5 7 7 7 5 6 3 3 4 2
14 12 9 7 4 1 2 8 12 15 17 16 14 10 5 7 4 7 7 2 6 6 7 8 10 7 5 4 2 6 12 8 8 11 7 5 7 6 7 6 8 7 5 3 1 2 1
15 12 9 8 4 2 2 8 11 14 19 18 13 8 9 9 7 7 4 5 1 7 5 10 8 3 7 7 8 5 4 5 4 10 7 4 3 5 3 3 4 5 1 2 3 2 3
16 12 10 8 5 3 3 7 11 15 21 20 12 11 9 11 8 8 4 5 1 2 8 5 2 5 5 4 3 3 5 6 7 6 7 7 4 3 5 8 8 0 2 2 3 1 2
17 13 10 8 6 4 3 8 11 17 23 20 14 5 13 14 9 13 8 2 2 7 1 4 5 4 4 4 2 5 8 8 5 5 4 4 3 2 8 5 3 3 5 3 1 1 2
18 14 11 8 7 6 4 9 13 20 25 16 12 7 16 17 4 2 3 6 3 7 7 4 2 1 2 5 3 7 8 5 5 8 4 5 2 2 7 5 3 3 3 1 6 2 3
19 14 11 8 7 7 5 8 15 20 21 13 7 3 7 10 11 11 7 7 5 3 4 2 5 4 5 5 5 6 9 4 5 7 3 4 1 2 2 5 7 7 8 8 8 3 5
19 15 12 9 7 6 6 7 13 18 18 9 5 5 11 5 7 6 10 9 10 6 5 6 5 5 7 2 6 5 11 8 4 2 1 3 3 6 8 9 9 10 11 11 12 10 8
20 17 13 10 7 7 6 6 9 14 15 11 4 3 5 9 14 8 4 6 10 8 8 7 5 7 7 6 4 6 6 4 3 3 2 6 2 3 3 4 9 12 14 14 15 14 9
21 17 14 11 8 6 6 6 7 10 13 7 5 2 4 2 5 6 5 8 9 10 4 8 8 8 12 13 15 13 14 9 7 3 4 3 2 1 2 9 9 2 4 5 4 6 9
21 18 14 12 9 7 6 6 6 7 9 4 6 4 4 1 3 6 10 9 11 9 6 11 11 9 11 17 16 15 15 11 8 7 7 5 2 2 2 5 3 3 12 12 9 7 7
21 20 17 13 10 8 6 6 7 6 6 5 7 5 4 2 8 10 10 9 14 9 13 16 11 14 15 4 3 3 2 4 4 5 7 5 2 3 1 3 9 11 4 6 5 10 10
21 20 18 15 12 9 7 6 7 7 6 5 6 7 3 8 4 9 10 15 8 8 6 6 8 8 4 3 2 3 2 2 5 6 8 5 5 1 2 2 3 2 7 6 9 8 8
21 19 17 16 14 11 9 7 7 7 7 7 6 7 5 4 4 5 10 11 12 10 5 9 6 4 2 2 3 2 3 2 5 6 4 2 1 3 4 4 6 9 5 4 3 2 5
20 19 17 16 14 13 11 9 8 7 7 8 6 5 5 4 4 5 7 13 8 11 5 13 5 2 3 3 3 2 2 4 2 3 6 7 7 4 3 3 6 2 2 1 5 10 2
18 18 17 16 15 14 12 11 10 9 8 6 1 4 6 5 8 11 11 11 9 5 10 16 4 8 8 3 2 1 2 2 2 3 8 4 6 4 9 5 10 3 7 10 10 7 3

GFSGBSN_850_spd_003.txt.gz
Wind_Speed
16 14 14 13 13 14 16 17 16 15 15 14 14 13 12 10 10 11 11 10 10 12 11 9 10 7 4 6 9 7 3 3 6 9 10 12 16 16 6 8 4 9 9 14 8 6 12
15 13 13 12 12 13 14 15 13 13 12 11 11 10 9 9 10 11 10 11 13 13 9 8 9 6 5 7 2 3 3 3 10 11 10 18 14 14 14 10 6 11 15 14 8 4 3
15 13 13 12 11 12 13 11 10 9 8 8 7 7 7 9 10 11 12 15 15 10 8 8 8 8 8 14 6 3 2 7 5 5 12 1 6 12 4 6 10 15 6 8 8 13 6
13 12 12 11 10 10 9 8 6 6 5 4 4 5 8 9 12 14 17 15 11 8 6 6 8 8 7 5 5 5 4 3 6 6 7 4 5 11 10 12 4 4 5 5 6 13 9
14 12 11 10 9 8 6 4 4 5 4 2 2 6 9 11 15 17 16 13 9 6 5 6 5 6 7 5 7 1 7 6 4 3 4 1 3 3 5 5 1 2 5 5 6 17 6
15 12 11 8 8 6 4 2 3 3 3 2 4 7 11 15 18 18 14 10 6 5 5 6 6 3 13 4 6 6 4 3 2 5 6 4 4 2 5 5 3 5 6 7 8 5 4
15 13 10 7 7 6 3 2 1 2 3 5 7 10 13 16 18 16 13 8 3 2 10 9 11 10 6 5 10 8 5 0 3 8 4 13 6 3 3 3 4 5 5 12 5 5 2
16 13 10 7 7 5 4 2 2 3 5 7 8 10 12 16 16 14 14 4 6 2 6 9 4 3 4 4 8 8 6 3 6 6 8 4 5 3 5 2 4 4 6 6 3 4 3
17 13 11 8 7 5 5 4 3 4 6 7 9 11 14 13 11 12 10 6 9 2 3 1 3 4 1 5 5 5 2 7 9 6 7 7 2 4 3 8 9 7 5 5 3 6 6
17 14 11 9 7 6 6 6 6 5 6 7 9 10 11 9 7 6 9 4 5 5 4 4 4 4 2 5 3 1 3 4 2 5 9 7 1 3 5 7 6 4 6 5 6 3 3
17 15 12 9 7 6 7 8 8 8 7 8 9 10 11 11 2 2 7 5 2 8 4 5 3 6 4 2 11 1 1 6 4 3 7 2 7 8 8 4 5 3 0 3 3 4 3
18 16 12 10 8 6 7 10 11 10 9 9 9 10 10 4 2 2 4 2 3 6 0 2 5 5 4 5 5 5 2 1 3 8 8 4 10 4 5 5 3 5 4 5 3 2 2
19 16 13 10 8 6 7 11 13 12 12 11 9 8 6 3 1 2 2 1 5 5 4 4 4 5 7 0 6 7 4 6 4 3 2 5 5 3 5 4 1 4 5 3 4 4 3
19 16 13 10 8 5 6 11 14 14 14 13 11 8 5 5 2 6 1 5 1 2 4 6 5 5 6 3 3 2 7 5 9 6 1 5 4 6 8 5 2 5 4 4 1 1 4
19 16 13 11 8 5 6 11 14 15 16 15 13 9 7 5 4 5 1 3 7 3 6 6 4 5 4 1 1 6 7 4 6 7 5 3 3 3 5 4 3 4 5 2 5 4 3
19 16 13 11 7 5 5 10 13 16 18 17 14 10 6 9 5 3 3 5 2 5 4 5 6 5 7 7 4 4 5 5 2 9 7 5 4 3 2 2 5 5 2 6 4 2 2
19 16 13 11 7 5 5 10 13 16 20 19 15 7 11 8 8 3 2 5 3 11 11 2 2 1 4 7 6 4 4 5 8 4 11 5 3 2 2 5 4 5 3 4 3 4 4
20 16 13 11 8 5 5 10 13 17 23 23 13 1 14 13 4 4 3 4 5 2 6 5 6 6 4 5 6 6 4 5 9 9 3 3 4 3 3 3 2 2 3 4 4 3 1
20 16 13 11 9 6 6 10 14 20 27 23 7 4 15 15 3 3 7 3 4 5 2 2 5 5 5 4 5 10 5 8 11 5 1 3 2 3 5 4 4 2 3 5 6 3 3
21 17 13 10 9 7 6 10 16 24 29 18 3 2 4 10 10 4 4 2 3 9 5 6 5 2 6 5 5 4 4 3 7 4 3 3 3 5 5 3 1 3 4 3 6 4 4
22 17 14 11 9 8 7 10 16 24 26 11 5 4 11 3 5 6 5 8 6 1 0 4 1 4 5 4 5 5 5 4 2 0 3 3 3 5 4 6 5 4 5 6 4 6 6
21 18 14 11 9 8 8 9 14 20 21 13 5 4 14 13 18 3 4 5 9 7 6 5 4 6 8 4 2 6 8 5 4 5 2 5 1 2 3 7 9 5 8 8 7 7 6
22 18 15 12 10 8 8 8 11 16 17 9 5 2 4 3 4 4 3 1 2 8 3 6 11 13 14 6 23 20 21 20 11 4 3 4 4 3 2 4 5 4 4 3 2 2 2
22 19 16 13 10 9 8 8 10 13 13 5 4 1 4 3 3 5 5 4 7 7 5 13 21 11 12 21 21 19 22 19 16 13 7 5 4 3 2 3 2 5 4 3 6 6 7
22 19 17 14 11 10 9 9 9 11 11 8 8 4 4 1 3 0 4 7 23 28 15 21 14 24 17 9 5 5 5 7 6 5 7 6 4 3 2 1 5 7 2 4 4 4 9
22 20 17 15 12 11 9 9 9 10 9 8 9 7 4 8 4 7 5 24 5 4 5 7 14 11 6 5 4 4 4 5 3 3 12 5 5 4 2 4 6 7 4 9 6 2 8
22 20 17 16 13 11 10 9 9 9 9 9 9 8 5 4 8 6 6 8 10 9 4 5 3 5 3 3 3 2 3 3 5 7 3 3 3 4 4 3 7 8 2 7 5 6 8
22 20 18 16 14 12 11 10 9 9 9 9 9 6 6 4 6 9 13 14 13 15 5 11 4 1 4 3 3 3 2 4 3 6 6 7 6 4 2 2 7 10 3 7 6 7 8
22 20 18 16 14 13 12 10 9 9 8 9 9 7 7 4 6 7 10 10 14 15 15 20 4 6 8 4 1 2 1 1 3 3 4 2 7 6 8 6 10 16 10 11 9 10 12

GFSGBSN_850_spd_006.txt.gz
Wind_Speed
19 17 16 15 14 14 15 15 18 18 18 19 18 17 14 12 12 11 11 12 11 11 12 9 4 4 4 6 11 6 2 2 7 13 15 14 12 10 6 5 5 7 5 9 13 12 8
19 17 16 14 14 13 14 15 15 15 15 15 15 13 12 10 10 10 11 11 11 11 10 6 4 5 5 5 3 7 4 4 9 10 10 13 12 10 14 12 7 9 16 10 9 7 6
19 17 15 14 13 12 13 13 12 11 12 11 11 10 9 9 9 10 12 11 11 11 8 4 5 6 9 14 4 0 8 9 9 5 6 7 0 7 3 7 22 22 6 4 2 5 2
19 18 15 14 13 10 12 10 8 8 8 8 8 8 7 9 10 11 11 12 12 9 5 4 4 5 9 4 7 4 5 4 2 5 4 4 0 2 7 11 5 5 6 3 4 6 2
19 18 16 14 13 10 10 7 6 6 6 6 6 6 8 10 11 13 14 12 8 5 3 2 3 4 9 7 8 2 2 4 3 3 2 5 3 5 6 4 5 7 3 3 3 10 3
19 18 16 14 12 10 8 5 5 4 4 4 3 6 10 13 14 15 13 9 5 3 3 5 3 2 10 6 6 9 6 2 2 2 6 6 6 5 5 5 2 5 4 5 7 6 4
21 19 17 14 13 10 6 5 4 2 2 2 4 8 12 15 16 15 12 8 3 2 9 8 3 7 7 9 7 9 6 1 1 1 2 7 6 3 3 4 4 3 3 7 3 5 5
23 20 17 15 14 9 7 7 5 3 3 5 8 10 15 17 15 13 12 3 6 5 6 15 12 13 9 6 4 10 6 1 0 2 3 6 2 3 4 5 5 4 7 5 5 7 5
24 21 18 16 14 9 9 9 7 6 6 7 10 12 16 14 11 10 10 5 6 5 3 2 2 5 2 1 5 6 2 2 3 2 3 6 4 2 5 7 7 5 7 3 2 2 8
26 23 19 18 14 10 11 11 9 8 8 10 13 14 13 11 6 6 6 5 4 5 4 4 2 2 1 4 3 2 1 1 5 7 7 5 7 5 5 4 1 2 2 4 3 3 6
27 23 21 18 14 12 13 13 12 10 10 11 13 14 13 11 3 2 3 5 4 3 4 4 1 5 3 1 6 1 2 2 0 3 6 4 4 6 5 0 2 3 1 2 1 3 3
27 24 22 19 16 13 14 15 14 13 12 11 12 13 11 6 1 3 5 3 2 6 1 3 5 4 1 0 3 5 2 4 5 6 6 4 3 3 1 3 1 1 1 6 4 3 3
28 26 22 19 17 14 15 17 16 15 14 13 11 12 10 5 3 2 4 3 5 5 2 3 4 4 4 2 2 4 5 6 4 5 3 5 4 4 5 4 5 8 5 3 4 4 4
30 26 22 20 18 14 15 18 19 18 17 15 12 13 10 5 3 3 4 5 2 4 4 3 5 4 4 3 6 4 3 4 6 4 3 4 4 4 6 2 1 3 5 5 4 2 3
29 26 23 20 17 15 16 18 21 20 19 17 14 12 9 6 2 4 1 3 6 6 4 6 5 5 2 2 6 6 4 2 2 1 5 4 0 2 1 2 1 3 4 4 6 3 3
29 26 23 20 17 14 15 18 22 22 21 19 16 11 9 7 3 3 4 5 3 2 2 5 6 5 4 5 4 4 2 3 2 7 2 2 4 2 3 5 6 5 2 4 4 2 1
30 26 23 19 16 14 15 18 23 24 23 21 17 8 11 11 5 2 3 5 2 6 8 4 3 5 6 7 5 3 3 3 6 4 8 2 4 4 4 3 1 5 3 5 4 3 4
29 26 22 19 16 14 15 19 23 25 26 24 17 3 15 13 3 0 2 4 2 4 5 5 3 3 5 4 5 3 3 4 9 3 3 2 5 3 1 3 1 1 3 4 4 2 2
29 25 21 19 16 14 15 19 23 27 30 26 16 5 13 15 3 2 5 4 3 2 2 2 3 3 3 4 6 3 4 4 10 4 2 2 2 3 6 5 6 4 2 5 6 3 3
29 25 21 18 16 14 15 18 23 30 32 24 9 2 4 8 3 5 2 1 2 6 3 5 4 7 5 4 6 4 3 3 5 4 3 1 3 4 6 4 3 0 2 3 5 3 4
27 23 20 18 16 14 14 18 23 31 32 20 6 4 10 3 4 3 3 3 2 2 2 5 4 3 5 4 3 4 3 2 4 2 3 3 4 2 2 3 1 1 2 1 4 4 5
27 23 21 18 16 14 14 15 21 28 30 16 4 4 10 10 16 5 4 6 9 3 3 1 2 4 6 5 6 7 7 3 4 1 3 5 2 1 0 5 6 3 5 5 4 4 4
26 23 21 18 16 15 14 15 19 25 27 11 6 6 12 1 6 4 4 6 8 9 1 3 16 7 10 2 16 19 13 11 8 5 3 4 4 3 3 5 6 5 4 3 1 4 3
26 23 20 18 16 15 14 14 17 22 26 11 7 3 5 2 4 6 3 5 5 1 7 7 14 8 12 23 23 22 26 23 21 14 5 5 4 3 2 4 1 5 5 4 9 3 10
25 22 19 17 16 15 14 14 15 22 20 15 7 3 4 1 1 1 6 12 19 22 9 8 4 13 22 7 5 5 5 7 5 7 6 5 4 3 3 3 5 6 4 6 5 3 4
25 22 19 17 15 15 14 14 15 17 16 11 9 7 5 9 4 2 9 17 6 4 5 7 18 10 5 6 4 4 4 4 2 1 7 6 6 4 3 4 6 6 2 9 8 4 16
25 22 19 17 15 14 14 14 14 14 13 12 11 10 6 6 3 11 6 8 12 7 4 3 3 4 4 3 3 3 3 5 5 6 4 3 3 4 3 2 8 7 11 4 5 7 23
24 21 18 16 15 14 14 14 13 12 12 13 12 10 8 6 7 6 13 15 16 12 5 10 5 2 4 4 3 3 3 5 2 4 6 7 6 4 3 2 7 13 6 7 6 11 21
23 21 18 16 15 14 13 13 13 13 13 13 14 10 8 5 9 12 13 15 12 12 15 17 7 6 8 4 1 3 1 1 3 3 3 2 7 6 9 7 6 18 11 15 12 14 17

GFSGBSN_850_spd_009.txt.gz
Wind_Speed
24 23 21 19 20 18 18 17 18 18 20 20 20 19 18 15 13 13 13 13 14 12 9 5 5 5 7 6 8 1 4 5 8 10 13 14 14 11 5 6 3 3 3 1 13 13 13
25 22 20 19 18 17 17 16 16 17 18 18 18 16 15 12 12 11 11 12 11 9 6 6 5 7 6 5 1 3 6 8 8 11 14 17 12 14 5 9 8 9 3 7 9 13 10
24 23 20 19 18 18 16 15 14 15 16 16 15 14 12 11 11 10 10 9 8 7 7 5 5 7 9 12 3 3 5 6 10 9 9 10 13 16 6 4 11 15 5 4 2 3 3
26 24 21 19 19 17 16 14 13 13 13 14 13 12 10 9 9 8 8 7 7 7 5 4 5 5 8 5 9 4 3 7 5 4 2 3 3 7 2 15 7 5 5 3 5 2 2
27 25 22 20 18 16 15 13 11 11 12 13 11 9 8 7 8 8 7 8 7 5 4 4 4 4 8 6 7 3 2 3 4 2 0 1 3 5 6 5 5 6 3 2 4 8 2
29 26 23 21 18 16 14 13 11 10 10 11 9 7 6 8 8 9 11 9 6 4 4 3 2 2 9 3 6 6 2 2 0 3 7 6 4 4 4 5 3 3 2 3 6 5 4
32 27 24 22 19 17 14 12 11 9 8 8 7 5 7 10 12 13 11 7 2 2 9 7 3 5 9 4 6 9 2 3 2 7 5 5 6 2 4 1 4 2 3 5 4 1 8
33 29 26 23 20 17 15 13 12 8 7 6 6 7 10 14 17 13 11 3 4 3 5 13 15 16 12 6 5 10 1 3 5 2 1 7 2 1 6 5 3 5 4 2 4 8 11
33 30 28 24 21 18 15 15 12 9 8 7 9 12 15 15 15 13 10 5 6 4 1 4 4 6 2 4 3 5 2 1 3 2 3 5 2 3 5 6 5 4 2 3 6 8 6
34 32 30 26 22 20 17 17 13 11 10 10 12 14 15 13 11 7 3 2 3 5 4 5 1 3 2 7 3 4 3 2 4 5 6 6 6 5 5 5 3 3 2 3 9 5 4
36 33 30 27 24 21 20 18 15 13 12 12 14 16 15 13 7 6 1 4 3 1 4 4 2 2 3 3 5 3 4 1 4 4 5 4 2 5 5 1 2 3 2 2 2 4 4
38 35 32 28 25 23 22 20 18 16 14 15 16 17 16 7 7 4 2 2 0 6 2 1 3 1 3 2 2 4 4 8 6 6 7 3 1 3 1 1 0 2 5 6 4 3 3
39 36 33 30 26 24 23 21 20 18 17 16 16 16 14 8 6 3 4 1 5 4 1 4 4 3 2 2 5 5 4 6 4 5 3 5 4 5 3 2 2 5 5 3 3 4 4
40 37 34 30 27 26 23 23 22 21 19 17 16 17 13 9 6 3 2 5 1 3 5 2 4 3 3 4 4 4 3 3 5 4 3 3 5 4 5 1 2 3 4 5 5 3 2
42 38 34 30 28 26 24 24 24 23 21 19 20 17 13 8 6 2 1 3 6 6 4 6 4 4 2 3 5 5 3 2 3 3 5 4 1 3 1 2 2 1 3 3 6 3 3
43 39 34 31 29 26 24 25 26 25 24 22 21 17 13 9 5 3 4 5 4 4 1 4 5 3 5 4 4 4 2 3 2 5 2 5 4 2 4 3 4 4 4 3 4 3 1
43 38 34 31 28 26 24 26 27 27 26 24 21 10 13 11 6 2 3 5 4 5 1 3 5 4 4 6 4 3 1 3 3 4 6 2 3 4 2 3 1 4 2 6 5 3 4
42 37 34 30 28 26 24 26 29 29 29 27 20 2 16 14 4 1 3 4 5 2 6 4 4 3 5 4 4 3 4 0 4 1 2 1 5 3 1 5 3 1 2 4 4 3 1
41 37 33 29 27 25 23 27 30 31 32 29 15 5 15 17 4 2 4 4 1 1 3 2 3 2 2 5 6 2 3 0 3 3 3 2 2 3 6 6 5 2 3 5 6 3 4
40 36 31 29 26 23 23 27 30 33 34 28 13 2 4 8 4 7 3 4 1 4 3 3 3 5 5 5 6 4 3 1 3 5 5 3 3 5 6 4 3 3 2 3 4 3 3
39 34 30 28 24 22 23 27 31 36 37 23 9 5 9 3 3 4 5 2 3 2 1 3 4 3 5 4 3 4 2 2 4 3 4 4 3 1 3 4 2 1 3 5 6 4 5
36 32 30 26 23 21 23 27 32 38 37 20 8 5 6 7 20 6 3 5 7 2 3 1 6 2 2 6 6 8 6 2 3 6 4 4 3 1 1 6 6 3 5 6 5 4 6
35 32 29 25 22 20 21 25 31 37 36 18 8 5 8 2 5 5 5 6 8 6 6 1 11 5 5 2 8 12 8 10 7 5 3 4 5 3 3 4 5 6 7 6 4 3 6
33 30 27 24 22 20 20 23 29 35 37 21 9 6 6 2 3 6 6 3 6 5 7 4 8 6 14 31 28 24 26 23 21 14 5 5 4 3 2 3 2 6 4 6 4 1 3
32 28 25 24 21 20 19 23 27 33 32 20 10 7 7 2 3 4 8 7 14 15 6 4 2 11 24 6 5 5 5 6 5 6 6 4 5 3 4 3 5 6 5 6 6 7 5
31 26 24 23 21 19 19 23 26 27 27 17 14 7 4 15 4 12 7 10 5 4 5 5 18 28 4 6 4 4 4 4 2 1 5 5 6 4 2 4 6 6 3 6 5 5 18
29 26 23 22 19 19 19 21 24 29 28 21 12 8 6 7 6 14 5 9 11 7 4 4 5 3 3 3 3 3 3 3 4 5 3 2 3 4 3 3 8 7 5 4 5 7 23
28 24 23 21 19 18 19 19 21 28 21 18 13 11 8 6 8 10 11 15 12 10 5 10 5 1 4 4 3 4 3 5 2 4 5 7 6 4 3 1 8 11 5 7 6 7 20
26 23 21 19 18 17 18 18 19 21 20 17 17 12 9 7 7 12 11 13 14 13 15 17 6 6 7 4 1 3 2 2 2 3 2 3 7 5 9 6 4 18 8 21 9 9 18

GFSGBSN_850_spd_015.txt.gz
Wind_Speed
27 27 27 25 24 21 21 20 18 18 20 19 20 20 20 20 20 18 15 13 10 7 6 6 5 6 7 6 6 11 6 10 12 14 14 16 13 8 4 4 5 3 4 6 6 7 15
29 28 27 26 24 19 20 19 18 17 19 18 19 18 19 19 18 14 12 9 7 4 5 5 5 5 7 4 3 3 5 3 12 15 16 16 6 10 3 3 5 3 6 4 3 13 11
32 29 28 27 26 19 20 19 18 17 19 17 16 16 17 18 15 10 8 5 5 4 5 4 4 7 11 10 2 7 6 3 8 13 14 15 16 5 3 2 4 7 4 5 5 5 4
34 32 29 28 26 20 20 19 18 17 18 16 14 15 16 16 12 8 5 4 5 5 5 5 4 7 8 2 6 7 6 4 6 9 14 10 11 15 5 1 4 2 3 4 1 4 4
34 34 31 30 27 23 21 19 18 17 17 15 13 14 14 13 9 6 5 5 5 6 5 4 4 5 7 2 6 3 4 2 6 4 8 2 11 6 4 4 2 7 4 3 4 9 4
33 34 34 31 28 25 22 21 19 17 16 13 13 13 12 11 7 6 6 8 7 5 5 3 5 2 5 1 4 3 3 2 2 13 10 7 4 3 2 3 4 4 5 2 5 5 11
36 34 36 33 29 27 23 22 20 17 15 13 11 10 11 9 8 8 11 10 3 3 10 7 2 2 3 6 6 5 3 0 3 4 3 3 3 3 3 1 2 5 3 4 3 2 7
34 36 37 35 31 28 25 23 21 18 15 12 10 9 10 10 10 12 13 5 2 2 4 12 16 16 12 7 2 3 3 3 3 5 5 4 3 2 4 5 5 4 6 4 4 3 6
43 40 37 37 33 29 27 25 23 19 17 12 10 10 11 12 13 14 12 4 2 4 1 4 8 7 2 9 4 5 2 3 7 4 3 4 2 2 4 3 6 2 6 4 5 7 7
48 39 36 39 35 30 28 27 24 20 18 13 12 11 13 14 13 11 9 3 2 1 3 4 3 2 4 6 3 4 3 2 5 4 4 5 3 4 3 3 2 4 2 8 12 2 3
46 48 39 39 37 32 29 29 26 22 19 15 14 14 15 19 8 12 3 5 4 3 3 4 2 3 6 4 7 3 3 3 5 4 2 1 1 3 5 1 1 3 6 8 3 4 4
42 47 39 40 39 34 31 31 28 24 20 17 17 17 20 22 9 8 7 4 5 6 3 2 1 2 4 4 3 1 3 6 6 5 5 3 2 3 2 2 4 9 5 6 3 2 1
43 44 44 41 41 35 34 33 29 26 21 20 19 21 24 19 10 10 7 7 4 4 2 2 3 2 3 2 4 3 3 4 2 4 4 5 3 2 2 4 2 3 4 1 1 0 3
41 41 46 41 42 37 35 35 31 28 23 22 21 23 25 19 12 9 8 3 3 3 5 1 3 3 4 2 3 4 3 3 5 4 3 3 1 3 4 2 3 2 3 4 5 3 1
39 41 48 41 43 38 37 36 33 29 25 24 23 23 25 19 13 10 5 4 6 6 4 6 3 4 1 2 4 4 3 2 1 2 4 3 1 2 3 1 1 3 2 2 6 2 0
40 42 45 43 44 38 38 37 34 30 27 25 25 21 24 18 16 14 4 5 4 5 2 2 4 2 3 2 3 3 1 1 2 2 1 5 3 1 1 2 7 1 6 3 2 3 3
40 41 44 42 44 39 39 38 34 30 29 26 23 12 19 20 18 10 4 5 5 7 7 5 5 4 3 5 3 2 4 1 1 1 2 3 2 2 1 1 4 3 2 5 4 1 2
40 43 41 40 45 41 41 38 35 31 30 30 18 3 22 23 4 1 4 5 3 4 3 4 4 4 4 3 3 3 6 1 1 1 4 1 4 2 1 0 2 1 3 4 3 4 1
39 40 45 42 44 43 42 39 36 33 34 36 14 6 19 23 4 1 2 2 2 2 1 3 3 3 2 4 4 2 3 2 3 3 5 5 1 3 3 2 1 2 2 4 5 2 5
37 37 56 41 43 44 43 40 37 34 36 33 17 3 6 8 6 8 5 3 1 3 2 4 5 4 4 3 4 5 3 2 2 3 4 3 2 4 7 3 1 4 4 5 3 3 4
35 36 34 44 44 44 42 40 38 37 39 31 10 4 8 3 1 5 4 5 4 2 1 2 3 2 5 4 2 3 2 2 3 3 3 2 4 2 1 1 2 2 4 8 7 4 6
31 37 37 43 45 43 41 40 38 39 42 25 9 6 6 4 18 7 2 6 6 2 1 1 6 3 2 5 6 8 6 4 4 2 2 2 4 1 4 1 3 3 5 7 8 4 10
34 39 34 42 42 41 39 39 39 42 45 17 9 12 14 2 4 6 6 6 7 7 3 4 7 5 4 1 4 9 8 11 6 5 3 2 5 3 3 2 2 5 9 11 6 6 7
24 32 38 40 39 39 38 37 38 43 46 20 16 16 7 2 2 6 8 4 6 6 6 4 6 5 7 27 28 23 25 22 18 12 4 5 4 2 2 1 2 4 2 2 10 6 13
32 36 38 38 37 36 35 35 38 43 45 19 17 17 6 3 5 4 6 5 14 9 4 4 3 8 28 6 4 4 4 5 5 7 6 4 4 3 2 3 5 5 3 5 6 6 12
34 35 36 35 34 33 32 33 38 44 44 18 20 15 7 13 7 13 7 8 5 4 3 4 10 29 4 4 3 4 3 4 1 1 2 4 5 3 3 2 5 5 2 4 3 4 3
35 35 33 31 30 29 29 32 38 44 44 19 15 12 6 5 6 15 6 8 9 6 4 7 10 4 1 2 3 3 3 1 3 4 2 2 3 3 2 4 7 6 1 4 3 4 3
33 31 28 27 26 27 29 32 38 42 45 22 14 8 7 4 14 9 10 14 11 10 5 11 6 2 3 3 3 3 3 4 2 3 5 5 5 3 3 1 6 6 4 5 4 4 6
30 28 26 24 23 24 27 31 36 40 44 22 17 8 8 6 9 11 11 12 10 13 16 23 8 7 8 4 1 3 2 1 2 3 1 3 5 3 8 5 4 12 9 11 9 8 8

GFSGBSN_850_spd_018.txt.gz
Wind_Speed
30 27 24 24 23 22 20 19 19 17 17 17 17 18 18 18 18 17 17 15 12 10 9 8 7 5 6 5 7 6 7 14 17 16 15 14 13 9 11 12 10 12 2 4 6 8 13
31 30 27 25 24 22 20 17 18 16 17 17 15 17 16 16 16 16 14 12 10 8 7 8 5 4 5 6 5 5 6 9 11 13 13 13 7 8 5 4 11 3 4 1 5 12 8
32 31 29 27 26 23 21 18 17 17 17 16 15 15 15 15 14 14 11 11 8 6 5 7 5 5 9 10 4 4 6 3 11 15 14 14 9 5 4 4 3 7 7 5 6 14 6
38 31 31 29 27 25 21 19 17 17 18 15 14 14 14 14 13 12 9 9 6 5 6 6 5 7 7 4 6 6 7 4 8 13 13 7 10 9 6 2 4 7 7 8 6 13 5
42 38 32 31 29 26 23 20 18 18 17 16 14 13 13 13 11 9 6 6 5 4 6 4 5 5 6 5 5 2 2 2 3 10 10 6 8 6 5 8 6 7 8 8 9 2 7
42 40 40 32 31 28 25 21 19 20 18 15 14 12 12 11 9 7 6 5 5 5 6 4 7 4 5 2 2 2 2 3 2 12 9 2 5 6 6 9 9 8 8 13 12 4 8
35 40 39 34 32 30 27 23 20 21 18 15 14 12 11 9 8 6 7 6 2 4 12 7 2 5 3 5 1 4 3 4 8 7 4 7 6 6 11 8 3 6 6 11 8 4 5
34 41 41 41 33 32 29 25 22 21 19 16 14 12 10 8 9 10 13 8 6 1 5 13 16 14 13 10 2 5 1 5 2 8 2 4 4 3 5 5 4 5 9 8 5 3 4
37 35 41 36 39 33 31 27 23 22 20 17 15 13 10 9 11 14 18 13 2 5 4 4 9 7 5 6 4 7 2 5 4 3 7 8 5 2 4 6 6 4 4 10 6 7 3
38 39 43 41 41 35 33 29 25 23 21 19 16 14 12 10 10 15 17 6 6 4 4 5 4 4 4 4 5 2 4 3 3 6 5 3 3 4 6 5 3 5 1 9 13 12 8
41 39 39 44 37 39 35 30 27 25 23 21 18 16 14 15 8 15 6 7 4 4 5 6 5 4 5 6 7 2 3 1 6 6 4 4 5 5 5 2 1 3 7 9 7 4 5
44 42 40 44 44 43 36 32 29 26 25 22 20 18 17 21 17 14 8 2 6 3 4 6 5 6 7 4 3 3 2 5 6 4 3 4 3 2 3 5 2 11 10 6 3 2 6
44 41 41 40 44 41 38 35 30 28 26 24 22 21 23 25 12 14 9 8 4 6 2 7 9 7 9 5 4 3 4 7 5 8 8 6 3 4 4 9 6 6 9 4 5 6 8
43 41 42 43 41 42 41 37 32 30 28 26 24 23 24 28 14 10 11 5 6 3 7 2 5 8 9 5 3 3 7 8 2 4 8 9 7 4 2 3 3 7 6 4 5 5 4
42 43 40 41 40 43 41 38 33 32 30 27 25 24 28 30 20 10 7 5 7 5 6 8 7 13 6 5 4 5 3 5 2 2 4 5 4 4 2 2 2 5 6 2 2 1 3
43 42 40 39 41 44 41 40 36 34 32 29 27 24 28 28 26 15 5 7 5 3 3 8 12 10 12 10 8 8 8 3 4 1 2 3 3 2 4 2 7 3 8 3 3 3 4
42 42 42 38 41 43 41 42 38 37 34 29 20 11 19 24 19 12 8 9 4 7 6 9 9 7 10 9 7 9 8 4 3 4 0 5 3 5 3 6 6 4 4 1 0 2 3
40 40 39 39 39 41 41 42 40 39 34 31 18 8 21 26 13 9 11 7 4 5 4 6 4 5 11 10 8 7 9 2 4 3 4 3 1 4 6 4 2 3 4 7 4 4 0
37 38 41 41 40 38 42 43 42 43 42 40 20 10 21 29 9 6 5 7 5 5 6 8 8 3 3 7 4 5 5 2 3 5 5 6 4 4 5 5 5 7 8 4 5 1 6
34 36 41 42 41 40 44 46 45 43 41 35 20 8 9 15 9 15 12 13 10 4 3 3 4 3 6 4 1 7 7 3 3 3 3 3 3 5 7 1 1 6 11 11 10 4 4
31 36 40 38 38 46 48 46 46 43 43 34 15 8 16 10 11 14 16 13 15 6 4 6 3 6 7 5 5 5 5 5 4 5 3 3 5 4 1 1 3 4 8 13 15 13 8
32 37 36 39 42 40 49 46 46 44 45 25 15 7 9 23 18 13 12 11 16 7 5 7 6 8 6 5 7 10 9 7 4 6 4 1 2 1 3 2 2 7 11 12 16 16 14
34 33 33 36 44 30 42 44 47 47 52 22 17 11 23 7 12 13 10 14 14 11 2 1 8 7 5 3 4 9 7 9 6 6 5 2 5 4 2 2 2 6 15 17 13 12 14
31 32 30 35 36 33 41 46 48 49 51 27 18 15 12 6 9 13 14 12 13 10 7 4 5 4 5 19 21 18 18 15 12 10 4 5 5 1 1 2 3 1 1 2 13 16 16
32 29 35 27 31 37 43 46 46 47 46 29 21 15 9 4 11 10 13 12 11 8 5 7 4 4 23 5 3 3 2 2 4 7 5 1 3 3 3 4 6 11 4 4 5 6 5
32 32 28 24 37 39 42 43 43 46 46 28 20 20 12 11 8 9 18 15 6 5 5 5 9 21 4 2 2 4 4 2 4 4 3 4 3 2 3 3 4 3 4 1 2 6 6
36 26 32 37 36 39 40 40 42 47 46 24 22 19 16 6 4 14 15 14 8 6 6 8 11 3 2 2 2 2 3 1 4 5 4 2 0 4 4 4 6 2 1 3 3 3 6
26 34 32 32 35 37 38 39 41 46 43 25 24 17 14 5 7 12 11 10 10 11 6 12 7 3 2 2 2 3 2 4 3 2 4 5 6 3 2 3 4 6 5 3 4 5 6
32 30 31 33 35 35 36 38 41 46 39 24 23 18 14 6 6 11 14 16 17 14 12 20 1 8 9 3 1 3 2 1 1 2 3 3 3 1 6 1 3 8 7 5 6 10 11

GFSGBSN_850_spd_021.txt.gz
Wind_Speed
30 29 28 24 22 21 20 20 18 17 17 18 18 16 15 17 17 18 19 19 16 15 12 9 7 7 7 6 11 8 1 9 17 16 11 12 12 14 11 13 15 10 3 4 4 6 14
38 32 28 28 26 23 20 20 18 16 16 17 17 15 15 15 17 17 18 17 14 13 10 8 5 6 5 10 2 2 3 9 12 13 11 12 8 9 8 7 11 9 9 5 8 9 14
40 39 34 30 28 25 23 20 18 17 17 17 17 15 15 15 16 16 16 15 11 10 7 7 5 6 9 16 0 4 3 6 10 12 10 10 9 8 3 7 8 5 6 9 10 12 8
28 40 37 31 30 27 26 22 19 18 18 18 17 14 14 14 15 15 12 12 9 7 6 5 4 5 9 5 7 8 9 6 10 12 12 6 9 10 8 4 6 8 9 10 8 16 6
29 30 40 35 31 30 28 24 21 19 18 18 16 14 13 13 14 13 10 8 8 6 4 4 3 3 6 6 7 5 10 6 6 8 10 7 7 9 5 10 7 6 13 13 9 15 9
31 29 33 41 35 32 29 26 22 20 20 18 17 15 13 12 13 11 7 5 5 4 5 5 6 6 8 6 4 4 6 8 3 9 9 6 9 7 8 10 8 16 17 12 13 11 12
38 32 29 38 40 34 31 28 24 22 20 19 17 15 13 11 12 8 4 2 3 4 10 13 3 7 4 3 6 7 6 7 7 11 8 9 2 9 8 12 8 10 6 10 12 5 10
42 40 34 29 39 38 32 29 26 23 22 19 17 16 13 12 12 9 9 8 6 4 9 18 18 13 11 5 6 9 8 10 7 9 4 5 12 6 2 4 4 3 5 12 8 9 7
39 36 34 37 38 37 36 32 29 25 23 20 18 16 13 12 12 13 14 14 2 7 8 11 14 11 7 10 11 13 10 11 13 15 6 10 8 0 4 8 10 4 5 7 10 12 14
41 40 38 35 35 39 39 35 30 26 24 21 20 17 15 10 9 8 12 8 7 8 5 11 9 8 8 8 10 3 6 3 10 7 4 6 9 10 1 3 3 9 2 8 4 12 14
44 44 41 35 37 41 40 39 31 29 25 23 22 19 16 12 6 9 3 3 4 3 5 15 12 8 7 11 16 9 6 7 12 3 5 3 10 11 12 2 5 13 4 6 8 13 7
46 47 43 41 38 41 44 37 33 31 27 24 24 21 18 20 21 14 5 5 5 5 6 8 10 11 11 12 9 14 10 6 2 10 15 9 6 4 7 2 3 4 4 5 7 11 7
47 46 45 40 40 39 44 43 37 33 28 26 26 23 23 21 9 11 8 7 5 11 7 11 14 12 14 10 13 11 14 11 10 11 12 12 10 5 4 6 4 8 8 7 8 6 9
36 47 45 41 39 40 41 41 39 34 30 27 26 25 25 25 13 10 9 7 11 15 11 5 15 13 12 10 13 16 11 15 12 14 11 12 9 12 8 11 4 9 12 7 6 7 11
37 34 43 44 39 41 40 42 40 33 31 29 26 25 28 31 24 13 14 9 14 9 10 10 12 13 12 10 5 14 17 16 16 14 13 9 7 6 1 3 6 5 9 6 5 1 6
44 33 44 42 39 41 41 40 41 34 35 32 25 25 28 28 28 12 9 15 21 3 6 11 15 15 14 14 10 13 13 7 5 4 6 2 3 3 5 4 6 8 3 4 6 5 9
46 41 39 40 39 38 40 40 42 36 38 31 22 11 19 27 27 14 11 17 19 9 9 11 16 12 13 12 14 15 11 7 6 7 6 6 7 6 4 10 10 7 9 7 5 3 4
42 45 38 42 38 39 39 40 42 38 39 35 26 11 22 31 17 18 14 22 12 11 9 8 7 9 12 11 12 11 13 6 9 7 10 4 4 7 11 5 5 10 8 10 5 6 2
42 44 35 40 39 38 38 40 41 40 47 40 31 18 21 29 13 12 20 23 14 11 11 12 11 8 9 10 10 11 9 6 4 7 4 6 7 7 7 6 8 9 10 9 4 1 7
34 41 39 40 38 39 39 39 40 42 48 40 28 10 12 21 31 19 23 21 18 10 8 13 12 10 10 7 6 8 8 4 4 3 0 1 11 10 10 5 3 11 13 11 12 7 9
38 27 44 42 40 36 38 37 40 45 50 37 32 14 20 16 20 20 23 18 22 13 11 15 11 15 12 8 9 7 9 6 5 5 6 4 8 12 14 6 6 9 9 12 16 16 14
30 34 38 42 42 42 43 34 41 46 50 35 24 21 28 28 33 19 21 22 24 19 15 15 11 16 13 9 11 10 11 9 7 9 8 5 4 2 5 8 8 11 12 14 14 16 17
30 31 35 37 39 40 41 41 40 49 55 32 25 26 31 26 23 18 17 21 22 16 2 5 13 9 11 6 7 9 9 3 4 7 9 5 5 4 3 4 5 6 15 16 17 16 13
31 32 33 35 36 35 43 44 46 55 58 33 18 17 23 14 17 18 21 21 20 16 10 5 9 9 6 16 17 14 13 10 7 6 5 5 4 2 1 1 1 2 1 4 7 13 15
32 30 31 31 35 36 38 42 48 56 58 36 18 19 17 5 16 25 21 21 19 12 11 13 5 5 22 10 4 4 2 2 2 3 3 3 4 2 2 6 8 11 6 1 3 6 9
29 29 33 31 32 33 38 37 50 54 60 42 14 16 22 12 14 29 21 23 11 11 7 5 12 14 6 2 2 5 5 5 5 6 3 3 1 4 3 3 4 4 4 1 1 5 8
29 32 30 34 34 46 42 39 50 54 56 33 9 16 18 15 23 20 18 15 19 12 6 8 9 5 2 2 2 3 4 2 5 5 4 3 2 5 6 3 5 2 2 2 5 3 8
28 33 32 35 47 44 40 46 51 53 52 25 6 20 17 13 13 11 13 18 21 20 7 13 8 3 3 3 3 3 1 4 2 2 5 6 6 3 3 3 5 6 6 1 5 8 9
33 34 34 35 34 37 43 47 50 53 50 20 6 22 18 12 8 9 14 15 14 15 16 20 6 13 10 4 1 2 2 2 0 3 3 4 4 1 6 1 4 5 4 6 7 9 11

GFSGBSN_850_spd_027.txt.gz
Wind_Speed
23 27 33 32 28 25 25 21 18 17 18 18 18 16 15 15 17 18 20 21 21 21 18 15 11 10 9 7 6 8 7 5 6 9 9 8 12 14 7 7 16 6 9 12 15 25 19
24 24 24 30 33 30 26 25 21 19 18 18 18 17 15 15 16 17 19 20 20 18 15 11 9 8 8 6 2 5 7 2 5 8 7 8 12 13 16 12 7 11 14 3 4 36 23
27 25 24 23 27 34 32 29 25 21 19 18 18 18 16 15 16 16 17 19 18 15 11 8 8 9 11 15 3 5 7 5 7 3 7 10 15 10 18 8 22 11 5 2 5 17 8
31 29 27 25 24 25 34 32 27 23 21 19 18 18 17 16 16 16 16 17 16 12 10 7 6 9 9 4 7 7 9 6 4 6 11 10 13 10 8 14 11 4 4 2 2 9 8
35 34 31 29 26 26 26 34 31 26 24 20 18 18 17 16 16 15 15 15 13 11 9 6 3 7 10 3 10 7 11 12 13 9 12 7 12 3 8 4 5 2 0 5 6 11 6
38 37 35 33 31 28 26 29 31 28 25 21 19 18 16 15 15 14 14 13 11 11 10 8 7 8 9 8 8 5 12 11 6 4 5 6 4 1 4 1 1 3 5 8 5 7 5
39 39 38 36 34 31 29 26 29 28 26 23 21 19 16 15 14 14 13 11 8 2 8 11 6 10 4 10 6 5 7 12 4 6 2 12 1 3 4 2 4 9 6 10 9 6 9
41 41 40 39 38 35 32 29 27 31 28 26 21 20 17 15 13 14 12 8 12 8 12 18 22 27 18 11 5 13 13 9 6 3 1 6 2 3 1 8 8 13 9 14 5 7 5
38 38 39 39 39 38 34 31 28 31 30 24 24 20 17 14 13 13 15 17 6 12 4 13 19 22 16 10 9 16 18 16 5 4 5 2 6 5 9 10 13 4 4 8 3 2 3
42 42 40 38 38 38 37 34 31 29 32 28 23 20 17 11 10 7 8 5 5 3 3 6 12 12 14 17 11 19 19 10 2 4 2 2 11 5 7 14 3 4 6 5 4 5 1
47 44 42 39 41 34 35 34 32 31 34 29 26 21 18 12 7 8 3 3 4 2 3 6 13 7 15 14 2 11 14 8 4 6 3 4 4 9 8 14 4 7 4 3 2 2 1
49 44 42 39 39 39 33 31 32 32 35 34 29 23 19 20 19 8 2 5 5 1 6 4 12 11 10 15 15 20 8 6 8 8 6 7 9 2 7 7 3 7 2 3 3 2 2
47 46 43 42 40 39 39 33 31 34 33 36 32 26 24 20 16 9 10 6 2 3 5 7 11 8 9 6 9 9 8 6 5 2 5 7 8 5 3 3 5 5 5 3 5 6 4
46 48 49 46 45 41 39 36 32 34 32 35 34 27 27 26 17 9 11 2 6 11 10 3 10 10 9 8 10 12 11 9 8 6 3 3 3 4 4 3 4 4 5 4 4 2 4
51 50 44 45 45 44 39 40 35 35 32 35 29 28 30 28 24 10 8 9 8 7 9 4 7 7 9 11 7 8 7 10 9 8 7 4 1 5 10 4 2 4 1 6 6 4 4
57 49 43 42 44 47 42 42 40 37 33 34 29 33 37 29 27 15 6 8 7 15 3 4 8 8 8 9 8 10 8 6 7 3 12 5 2 3 8 9 14 4 3 1 3 4 4
49 46 44 45 38 48 39 42 43 38 36 35 30 15 23 30 26 16 12 10 11 27 18 6 8 8 9 7 10 4 8 10 7 9 14 5 4 5 3 5 12 1 3 2 3 5 4
52 48 45 46 43 49 43 43 45 41 39 37 21 7 21 35 11 8 13 12 12 19 21 12 2 3 7 6 8 9 11 2 14 13 9 10 5 4 15 15 6 4 5 5 5 5 2
52 49 45 42 44 52 37 47 47 45 47 45 19 14 26 40 12 11 7 14 21 20 17 6 2 2 3 3 6 8 4 4 8 5 6 2 0 2 7 6 5 3 4 4 4 3 4
52 51 44 42 43 44 48 47 47 48 51 43 16 8 15 28 31 19 16 17 21 22 21 22 7 8 6 4 14 7 4 2 5 5 6 4 3 6 6 7 2 3 3 5 5 4 3
47 47 44 41 46 37 41 37 48 48 52 43 17 10 17 13 18 13 18 14 17 17 21 14 8 9 7 4 1 5 5 4 3 4 3 4 4 1 3 5 5 4 3 6 5 6 6
46 44 42 40 39 40 36 41 45 47 50 49 11 15 24 7 25 16 19 21 24 20 15 17 10 10 7 5 6 7 7 5 5 1 4 1 1 2 2 6 7 4 6 7 7 6 2
42 41 40 38 35 35 36 40 45 50 50 27 27 24 24 12 19 17 21 22 22 15 15 18 10 5 6 4 11 11 7 12 11 8 6 5 5 3 3 4 5 6 7 7 5 4 4
38 39 38 37 38 37 37 42 47 48 51 27 33 14 11 8 13 23 21 23 25 23 11 14 22 7 13 28 24 21 25 19 15 8 7 5 5 3 3 3 1 8 1 5 5 5 8
35 34 36 39 38 39 36 45 48 49 44 51 24 17 1 3 16 18 21 24 23 26 19 4 2 14 28 9 4 4 5 5 3 4 6 4 5 2 4 4 5 7 3 2 3 4 5
35 32 34 38 38 41 40 46 45 45 40 42 40 12 5 2 15 33 26 27 12 7 3 3 12 21 17 3 4 4 4 6 4 3 7 6 5 4 2 4 6 6 3 6 4 2 6
27 29 30 33 37 41 47 47 45 42 43 39 35 36 11 6 14 26 26 25 27 7 5 6 8 2 6 3 3 3 3 7 6 9 4 3 3 5 2 2 7 6 7 2 6 6 7
27 28 32 28 36 39 44 40 39 33 39 42 44 26 14 7 12 25 36 23 21 21 7 16 7 8 2 4 4 3 3 5 4 7 7 6 6 3 3 3 6 9 4 6 6 10 9
23 24 22 24 30 34 36 36 34 34 40 46 39 41 22 15 12 8 37 21 30 29 24 26 10 14 10 4 2 4 2 2 3 3 3 1 6 5 6 6 9 8 13 14 11 12 12

GFSGBSN_850_spd_030.txt.gz
Wind_Speed
22 22 22 24 28 29 26 24 22 20 18 16 15 16 16 15 15 15 16 17 18 19 17 15 13 13 13 8 5 5 6 4 4 9 10 5 4 3 3 4 7 6 14 3 14 20 13
24 24 23 23 21 25 30 28 25 22 22 18 16 16 16 15 15 15 16 17 18 17 15 13 12 12 10 5 3 5 9 2 5 10 6 4 7 18 11 5 3 13 5 13 19 16 10
28 26 26 25 24 22 23 30 29 27 23 21 18 16 16 15 15 15 15 16 17 15 13 11 12 12 13 12 2 4 4 4 6 4 1 4 11 8 6 6 17 11 3 12 9 11 4
33 31 29 27 26 24 23 23 30 29 28 23 19 17 16 16 15 15 15 16 17 13 12 10 10 13 9 3 8 9 4 5 1 3 7 9 10 9 3 7 9 6 5 5 9 10 13
37 35 33 31 29 27 26 24 24 29 27 24 21 17 17 16 15 15 15 15 16 12 12 9 8 8 8 9 12 13 9 7 5 6 9 13 9 5 5 3 5 5 1 2 3 14 7
39 38 37 35 32 30 28 26 24 26 27 25 23 19 17 16 15 15 14 15 15 13 12 9 11 8 8 2 7 10 13 7 9 5 6 2 2 3 3 4 1 2 2 3 3 4 5
38 37 38 38 36 33 31 29 27 23 26 25 24 21 17 15 14 15 13 11 7 3 5 10 5 10 12 6 5 11 11 13 7 4 2 1 4 2 5 5 2 2 5 7 13 9 5
42 38 37 38 37 36 34 32 28 25 24 25 23 21 17 15 13 13 12 8 4 5 12 20 20 25 25 18 8 8 9 11 4 4 0 4 2 3 4 2 4 5 7 8 12 8 6
48 43 41 37 37 38 37 33 31 28 25 27 25 22 18 15 12 12 10 11 12 14 6 15 16 22 18 10 8 10 11 11 4 3 4 5 5 4 2 3 4 6 5 6 5 4 6
50 47 43 40 37 36 35 34 31 31 28 27 26 22 18 13 10 8 2 9 1 5 3 6 8 9 12 10 6 16 11 12 3 8 3 3 1 2 3 3 4 7 6 5 6 4 0
50 51 47 42 39 38 36 32 30 31 31 29 27 23 18 15 7 9 3 7 6 1 3 4 7 5 15 12 2 6 13 11 7 6 4 6 5 3 2 7 2 9 4 2 2 4 3
51 53 51 46 44 41 38 36 31 29 32 30 29 24 23 21 18 10 6 4 9 2 8 4 10 8 7 12 7 1 8 11 5 4 2 4 3 6 7 6 5 5 3 6 5 3 2
59 49 52 50 47 43 37 35 34 28 27 29 32 27 28 22 19 15 11 5 3 5 5 5 7 8 9 7 5 7 4 4 5 4 3 4 4 6 3 2 3 3 5 3 4 4 5
57 54 53 49 49 44 39 36 34 30 28 28 30 29 28 25 18 14 11 2 9 7 7 3 7 11 9 7 9 6 7 6 4 4 3 4 4 3 3 4 2 5 5 5 4 2 4
61 52 55 52 50 43 42 38 33 32 28 27 29 31 30 29 22 16 10 9 8 6 5 4 4 8 5 7 7 6 8 9 9 9 7 5 4 5 5 4 5 4 2 4 6 4 2
52 54 55 55 51 42 43 41 35 33 30 28 32 31 34 31 25 19 6 14 6 10 6 4 7 7 9 9 8 8 9 6 7 9 9 7 1 5 6 4 4 6 4 1 3 3 3
49 60 50 52 46 42 42 38 40 35 33 30 29 17 26 34 24 13 12 11 14 31 11 4 3 5 9 8 10 7 9 6 9 5 7 6 4 3 2 3 7 2 0 2 4 4 4
55 61 57 48 51 51 43 39 38 37 37 35 29 8 27 39 13 9 15 13 15 23 13 8 4 10 9 9 8 9 11 9 13 18 10 8 5 3 10 8 2 4 6 6 5 4 1
57 54 64 56 52 50 44 35 37 41 46 42 19 14 33 39 12 13 8 19 24 12 7 4 5 7 2 6 5 5 1 2 5 10 9 7 1 2 7 6 4 5 6 4 4 4 6
58 54 57 53 51 49 48 37 42 47 50 48 17 9 14 29 30 21 18 16 19 23 20 14 9 8 2 3 2 4 4 2 3 6 6 12 4 7 7 6 3 2 1 3 5 3 4
58 54 54 54 50 43 40 44 46 45 54 53 20 10 19 15 19 15 20 14 21 14 15 10 9 17 9 4 4 6 5 2 4 6 3 4 5 4 4 4 1 1 5 4 5 5 5
57 54 55 54 48 42 40 46 51 45 54 54 15 8 24 8 26 20 21 23 26 19 11 18 14 12 8 7 8 8 8 4 5 2 3 2 3 1 2 3 3 3 6 5 5 3 5
56 54 54 51 48 43 43 42 48 46 57 33 42 26 26 12 18 17 23 24 26 20 15 32 12 14 5 9 7 11 19 20 14 9 5 5 6 3 4 4 4 5 7 7 6 3 4
52 51 50 45 43 43 43 49 44 52 44 35 43 13 14 9 15 23 24 23 27 21 20 20 34 10 8 22 27 25 27 19 15 6 7 6 5 2 3 3 2 7 5 3 9 5 6
46 46 46 42 40 39 40 44 39 48 41 47 27 23 5 5 13 14 26 24 19 28 17 27 12 18 29 10 4 5 5 6 5 7 5 3 4 2 4 3 5 6 4 5 5 1 1
44 44 42 41 40 39 39 36 38 38 48 66 35 27 3 3 12 20 22 29 18 10 12 7 14 19 19 3 4 5 5 6 3 4 6 7 6 4 3 4 7 7 4 5 6 1 6
41 40 39 39 41 39 38 37 37 43 50 60 39 38 8 6 9 35 16 22 27 6 8 5 10 6 6 3 3 3 3 7 6 9 5 4 3 5 2 3 7 8 7 4 5 6 10
37 36 36 36 40 38 37 38 38 48 48 53 29 30 18 7 18 13 30 29 24 28 9 8 7 1 3 4 3 4 3 5 4 7 7 7 6 3 3 2 7 8 5 7 7 12 16
31 29 31 32 34 37 39 36 45 43 43 45 29 28 19 12 12 10 17 24 47 38 24 19 7 8 8 4 1 3 2 2 4 3 3 1 7 6 8 6 6 4 5 21 21 19 15

GFSGBSN_850_spd_033.txt.gz
Wind_Speed
24 24 22 22 23 26 29 28 25 24 22 21 17 15 15 15 15 14 14 15 17 18 19 18 16 15 13 6 3 5 7 4 3 7 8 5 1 1 2 5 4 4 5 8 14 12 7
29 27 26 25 23 22 23 28 29 26 25 22 21 17 16 16 15 15 15 15 16 17 17 17 14 14 10 4 1 2 6 1 1 5 6 3 5 10 7 6 2 4 10 5 6 15 10
33 31 30 28 27 24 23 23 24 29 26 25 22 20 17 17 16 16 15 15 17 17 16 15 14 14 14 13 5 3 2 3 2 3 1 4 9 8 7 7 7 7 3 4 4 2 4
35 35 34 32 30 29 25 23 22 23 27 26 25 22 19 17 16 16 16 15 17 17 15 14 13 13 10 3 12 9 4 5 5 6 7 3 9 10 4 8 8 4 4 3 2 2 5
37 36 36 36 34 32 30 26 24 21 22 26 26 22 19 17 16 16 16 15 18 17 15 13 12 8 8 7 13 8 9 7 4 8 10 9 6 3 4 2 5 6 2 3 1 6 2
39 38 38 38 37 35 33 30 27 24 21 24 23 22 19 17 17 16 15 15 18 15 13 12 13 8 7 2 3 10 14 15 7 7 3 1 1 3 3 3 2 3 4 3 3 3 6
43 40 38 38 39 38 36 34 31 27 24 22 23 22 19 16 16 15 13 11 9 5 6 9 2 7 11 5 8 11 11 14 7 4 0 3 4 2 4 4 2 3 2 2 4 5 5
45 45 42 39 36 37 36 35 33 31 27 24 23 21 19 17 15 14 12 7 3 3 10 16 20 25 25 23 9 7 8 11 6 4 1 4 1 5 5 7 4 6 5 9 9 7 8
42 45 45 43 41 36 35 33 29 31 29 25 25 21 18 18 14 14 11 4 9 11 6 12 16 17 19 13 9 10 11 13 4 5 5 4 5 1 1 2 1 2 3 7 8 4 4
56 49 43 45 45 41 36 32 29 27 29 27 26 22 17 17 13 15 6 2 4 8 2 6 6 8 14 8 6 18 16 14 2 9 5 4 3 2 2 2 4 5 3 6 4 1 2
46 59 52 44 46 44 40 35 31 28 26 28 26 24 18 19 9 10 9 4 10 4 3 3 5 3 17 16 2 10 18 12 7 6 5 6 4 3 2 5 6 9 3 5 1 3 3
46 47 60 52 46 44 42 38 34 30 25 24 26 25 21 23 23 11 9 2 8 5 6 4 9 7 6 9 3 6 13 10 6 5 2 5 4 3 5 2 6 3 2 4 4 2 2
50 45 53 61 51 46 43 40 36 32 28 24 27 26 27 26 24 18 11 8 2 4 4 5 6 7 7 6 4 3 5 5 5 3 3 2 3 2 2 2 4 5 5 3 4 4 4
54 47 48 59 56 49 47 41 39 34 30 24 25 28 31 28 25 15 12 3 8 7 6 5 4 5 9 6 6 7 5 5 3 4 3 4 4 4 1 4 4 1 5 4 3 3 4
57 52 47 50 63 52 50 44 40 33 30 26 23 28 33 31 28 15 11 9 7 6 4 4 4 5 4 4 6 4 8 7 8 7 6 4 4 2 3 2 3 3 2 3 6 3 2
62 56 50 49 50 63 49 46 39 35 32 29 26 27 33 32 30 19 7 17 7 6 3 5 8 6 9 7 7 8 9 6 6 11 7 6 1 3 4 2 4 2 6 1 3 2 3
65 61 52 48 46 60 50 49 41 38 34 32 26 13 22 34 31 14 12 11 13 20 3 3 3 5 8 8 10 7 8 5 7 3 7 5 4 4 1 5 9 2 2 3 4 5 4
63 64 57 48 46 54 54 51 43 42 37 34 28 8 25 41 13 10 13 7 7 16 5 3 3 5 6 8 8 9 10 10 18 14 9 8 6 4 9 3 4 3 2 5 4 4 1
62 71 58 53 49 58 55 52 45 38 45 39 24 16 30 42 12 15 7 12 12 9 7 6 5 3 1 7 5 6 7 4 10 9 9 7 1 2 7 6 4 1 4 4 5 3 6
60 71 65 54 49 59 54 53 46 36 48 37 18 7 16 34 42 18 20 16 19 23 13 2 3 3 2 3 2 8 6 3 6 7 12 13 4 7 7 8 4 2 3 4 5 3 3
63 70 67 55 53 58 51 50 47 38 49 43 22 11 17 14 24 19 19 14 25 13 22 20 5 7 3 4 1 3 3 3 3 7 3 6 5 3 3 3 4 5 5 6 7 5 6
60 73 66 57 55 66 52 52 49 43 46 45 18 7 21 2 27 25 18 21 26 23 10 9 15 7 13 10 8 8 7 4 6 3 3 2 3 3 3 3 3 4 7 6 5 4 7
60 74 67 59 57 60 57 50 48 46 49 24 34 22 11 17 20 18 29 24 25 17 24 12 20 11 6 14 20 23 15 16 12 10 4 4 6 4 4 2 2 6 8 7 7 6 6
69 70 64 57 55 60 59 47 49 53 57 34 40 20 7 8 15 25 21 20 24 27 14 27 33 7 10 6 9 13 17 18 12 8 3 6 6 3 3 3 1 7 2 7 5 2 4
71 65 61 54 54 56 53 44 51 57 53 56 37 30 6 4 18 15 24 23 20 26 20 23 17 31 18 13 3 4 5 5 4 8 5 2 6 3 4 4 4 4 4 6 5 3 3
67 63 52 53 55 57 49 47 52 47 48 57 31 38 16 4 9 22 20 25 17 16 8 13 33 14 21 4 3 6 5 6 3 3 4 5 6 4 3 5 8 8 4 6 6 2 6
59 51 52 51 52 51 49 48 46 42 47 45 37 29 33 4 6 27 15 19 26 18 8 6 14 10 19 3 3 3 3 5 7 10 6 3 4 5 2 3 7 8 5 9 6 7 17
47 48 47 45 45 44 44 42 41 44 45 45 46 27 29 6 15 5 19 18 30 29 13 12 7 3 3 5 4 4 3 6 4 5 7 7 7 4 3 3 7 8 6 8 6 13 24
40 38 41 41 41 41 38 41 41 39 37 48 24 28 26 15 9 9 15 22 26 35 28 23 9 9 12 4 0 3 3 2 5 3 2 2 7 6 8 6 4 6 4 8 22 29 22

GFSGBSN_850_spd_036.txt.gz
Wind_Speed
27 27 26 25 25 24 25 28 29 27 25 24 21 21 19 18 17 17 17 16 16 18 18 19 18 16 13 6 4 3 5 4 3 7 8 5 1 1 1 3 2 3 4 5 9 7 7
31 31 30 28 27 26 25 24 25 28 28 25 24 24 22 19 18 17 17 16 16 18 18 18 17 15 11 5 5 2 3 4 5 8 6 2 3 6 4 3 1 5 7 2 5 6 7
36 33 32 32 30 28 27 26 24 23 25 28 25 24 22 20 18 18 18 17 17 18 19 18 16 16 14 13 8 6 1 3 5 6 3 3 6 6 7 4 5 6 0 2 2 5 3
37 37 36 33 32 32 29 27 26 24 22 23 26 24 23 23 19 18 18 17 18 18 18 18 15 15 10 5 13 10 5 3 3 4 6 6 7 10 3 7 5 4 3 1 1 2 3
36 37 38 36 34 32 33 30 28 26 24 20 22 24 22 21 19 17 17 18 18 19 19 17 13 8 9 5 13 10 8 5 2 4 10 7 7 4 3 2 4 6 1 4 3 4 3
35 35 38 37 35 34 33 33 29 27 25 22 20 21 21 18 19 18 16 18 18 18 16 13 13 8 9 4 6 10 11 10 7 6 3 1 1 2 3 3 2 1 2 3 2 3 2
43 39 35 39 36 33 32 31 32 30 26 24 22 20 19 17 19 18 15 13 10 7 7 9 2 6 7 4 8 9 10 9 7 2 2 3 4 2 5 5 4 3 2 3 5 4 6
40 43 43 37 40 37 33 31 29 29 28 25 23 20 19 17 17 18 14 10 6 5 11 16 21 28 25 23 9 8 10 8 6 4 1 5 3 6 4 3 4 2 4 6 6 3 5
43 37 46 47 39 40 38 34 30 26 23 25 25 22 19 14 15 19 15 11 10 9 6 13 19 18 24 17 10 10 14 12 4 4 4 5 4 2 3 3 4 4 2 5 4 5 1
49 44 41 47 48 41 39 37 33 30 26 24 25 21 16 12 14 18 14 7 11 6 3 7 6 8 15 10 6 14 16 11 2 8 6 4 4 3 1 2 4 2 5 3 5 1 1
52 49 44 40 51 48 41 39 36 31 26 23 24 22 17 16 10 6 7 3 8 7 3 3 4 2 15 17 8 14 15 11 8 6 6 8 2 5 3 5 5 8 3 2 2 2 3
54 52 50 46 41 50 48 41 38 35 30 25 22 21 20 21 23 13 10 1 5 3 7 4 7 7 7 9 5 8 15 6 5 5 1 5 2 4 5 4 6 1 2 6 4 3 2
55 53 50 49 44 41 53 45 41 36 32 26 23 22 26 27 23 20 16 4 4 5 1 5 5 6 6 6 4 5 7 6 6 4 3 2 3 2 3 2 2 3 5 3 3 4 4
56 56 53 50 47 42 42 54 40 38 34 29 25 22 29 31 23 17 9 4 10 5 6 3 1 4 8 6 6 5 6 6 2 4 3 5 5 6 3 6 7 3 6 5 2 2 3
56 57 56 53 48 45 42 51 48 41 34 30 26 24 32 34 28 24 11 10 7 6 4 3 2 5 4 4 6 4 8 8 9 8 7 4 4 1 1 1 2 3 2 4 6 3 2
54 55 57 55 50 47 43 45 50 41 36 33 30 26 36 33 29 23 5 17 7 5 3 2 7 6 9 7 6 8 9 6 7 10 5 7 2 1 1 2 3 2 6 3 3 2 3
55 53 55 57 55 49 47 43 50 46 37 33 30 15 15 34 30 14 10 10 16 20 2 2 2 2 7 8 9 6 9 2 8 6 6 5 4 4 0 5 8 2 2 4 5 4 4
52 55 55 56 61 50 48 44 48 49 41 37 29 7 20 42 17 14 17 7 15 19 6 4 3 4 4 7 7 8 10 10 17 13 9 7 6 4 9 3 3 5 6 6 5 4 1
54 54 54 57 58 58 49 45 48 50 46 48 20 14 27 50 14 17 13 13 7 14 8 6 4 4 1 4 4 6 7 6 15 9 9 7 1 2 7 5 4 4 4 3 5 3 6
54 54 53 55 59 63 50 46 51 54 51 51 13 8 17 35 41 19 23 16 23 14 5 10 2 3 1 3 4 7 7 5 13 12 8 12 4 7 8 8 4 4 6 5 5 4 4
56 54 54 54 61 66 53 48 53 58 54 53 15 9 15 14 24 21 19 14 21 17 22 12 2 5 3 3 1 4 2 2 2 7 6 7 7 5 4 4 4 5 4 8 7 5 6
56 54 52 51 61 67 57 51 56 62 56 41 8 8 18 9 31 24 13 24 24 23 8 16 6 9 8 5 7 5 3 4 6 5 6 1 5 4 2 2 2 3 5 5 4 3 5
53 53 51 51 67 66 58 55 62 62 60 33 34 26 12 20 20 18 30 18 20 18 25 11 23 17 8 20 26 21 15 8 2 5 9 7 7 4 4 3 4 7 9 9 6 5 7
47 48 49 47 72 67 56 52 72 67 68 39 46 15 9 7 13 24 18 21 21 22 13 25 14 13 11 7 5 4 7 7 9 5 1 8 7 2 3 2 2 7 1 3 8 7 6
45 45 49 47 68 64 57 63 64 65 66 43 42 17 5 4 12 12 18 25 20 24 16 16 25 12 6 11 3 1 4 3 2 5 5 2 6 3 5 4 5 4 5 7 8 8 7
44 42 42 62 67 58 64 62 66 62 56 51 27 42 8 2 5 17 14 19 18 14 9 15 33 25 8 2 2 6 6 6 5 3 4 5 6 5 3 5 8 8 5 8 4 4 8
42 43 49 68 62 61 61 62 53 54 55 51 39 30 17 2 6 13 17 15 22 18 1 6 23 10 17 1 3 3 5 4 6 10 6 3 3 5 2 3 7 8 4 10 6 8 18
36 42 64 64 51 59 63 58 54 52 55 53 45 35 27 9 25 6 25 21 23 32 13 8 8 10 3 6 4 4 3 6 3 4 7 7 7 3 3 3 7 9 5 9 7 3 27
62 62 49 47 56 54 53 54 47 49 51 47 34 42 44 15 9 13 10 19 28 30 28 27 12 9 15 4 1 2 2 0 5 4 0 3 6 7 9 7 4 14 6 15 9 13 25

GFSGBSN_850_spd_039.txt.gz
Wind_Speed
29 29 27 27 26 24 23 23 22 24 26 27 25 24 22 20 20 17 17 17 17 18 19 19 19 18 14 7 5 3 3 4 7 11 10 6 2 2 1 4 2 5 5 4 6 3 4
29 29 30 30 28 28 26 24 23 22 22 25 27 25 23 22 20 20 17 17 18 19 19 18 19 17 13 6 5 3 3 6 9 12 9 5 2 3 3 5 3 3 3 1 4 4 5
26 30 29 29 30 28 28 27 25 24 22 22 22 26 24 22 22 20 17 16 18 19 19 19 18 18 15 16 7 8 5 7 9 9 6 2 2 3 5 4 5 3 1 3 2 1 2
31 26 29 30 28 30 28 27 28 26 23 21 22 22 23 21 21 21 17 16 18 19 20 20 18 17 10 7 12 12 7 6 8 7 5 4 3 7 3 6 5 2 3 1 1 1 1
31 33 30 27 31 28 28 27 27 27 25 23 21 21 20 21 19 21 17 16 18 20 20 19 15 9 10 6 12 13 10 5 5 5 4 7 5 2 1 1 2 5 1 0 2 4 4
33 33 31 33 26 31 29 27 25 27 26 25 22 20 19 19 18 18 19 16 17 18 17 13 12 6 11 4 7 10 11 10 7 4 3 2 2 0 1 1 3 3 1 1 1 2 3
34 28 32 33 37 27 32 30 27 23 24 25 23 20 20 18 16 16 18 13 10 6 6 8 3 5 3 3 8 11 12 10 9 3 2 1 2 5 8 5 4 4 3 0 2 3 3
39 38 35 34 31 39 31 32 30 26 23 23 21 20 19 17 13 14 14 11 11 8 11 15 19 27 27 17 6 11 14 11 6 5 3 1 3 3 3 5 5 3 1 2 1 2 6
44 43 41 37 34 30 41 32 31 29 24 21 20 20 15 14 11 13 14 12 16 11 6 10 19 18 24 20 12 12 18 11 4 5 5 4 3 2 3 3 4 2 1 2 3 1 2
45 43 43 43 40 35 30 41 32 31 28 22 19 18 14 7 10 11 15 9 9 10 4 6 6 8 17 14 7 17 20 12 3 9 7 4 1 2 2 4 3 2 1 3 3 1 2
49 49 46 43 43 39 34 33 40 31 30 25 21 16 15 15 6 4 3 4 2 7 4 2 5 4 12 17 14 16 22 9 8 6 5 4 4 3 5 5 5 4 3 1 1 2 2
54 52 50 48 44 43 38 33 38 39 32 28 22 18 16 21 21 12 8 3 4 1 7 2 7 6 6 6 5 11 10 8 7 5 1 3 2 5 5 3 4 4 2 4 3 2 1
50 50 50 50 47 44 42 38 35 42 36 30 28 22 21 23 21 19 12 6 2 6 5 4 4 6 6 6 5 4 7 6 6 5 4 0 3 2 4 3 1 2 2 1 1 1 2
48 49 49 49 50 44 43 39 36 33 42 33 28 24 24 30 18 20 12 3 10 5 10 3 2 5 8 6 4 4 8 10 2 4 3 6 3 7 4 5 6 5 4 4 3 3 1
49 50 50 49 49 47 44 41 38 33 41 35 27 28 30 34 28 19 13 10 8 7 4 3 2 4 3 3 5 4 7 14 10 8 5 4 4 1 2 2 3 3 3 2 6 2 0
52 51 51 52 50 49 46 43 39 35 38 37 30 32 34 33 31 22 6 21 10 8 1 1 4 4 9 6 4 9 8 5 7 9 5 6 1 1 2 2 3 2 6 2 1 3 3
50 51 51 51 51 49 49 45 41 37 37 40 33 16 19 31 32 18 15 16 21 14 3 2 2 2 4 6 7 5 9 3 8 8 4 5 2 2 2 5 7 3 3 4 3 1 3
48 48 49 50 51 48 52 48 43 39 38 40 31 8 16 39 19 15 18 16 10 19 10 5 2 3 3 6 6 7 12 9 17 16 9 5 4 4 7 1 2 3 6 6 3 5 1
49 48 47 49 49 51 51 55 48 44 43 45 18 19 21 52 14 17 16 28 5 15 14 6 7 5 1 3 4 6 6 7 17 9 9 7 2 2 2 1 1 4 5 4 4 2 7
52 51 50 48 46 51 52 59 53 50 47 47 15 8 15 39 39 23 19 20 26 14 8 13 3 3 1 2 3 5 5 4 15 10 9 15 4 6 10 7 4 4 5 5 5 3 4
54 54 53 51 50 52 53 62 59 54 52 53 17 7 15 13 24 22 21 19 25 17 18 16 5 7 5 5 1 4 3 2 3 7 5 6 7 6 4 3 5 5 6 11 9 6 7
54 55 55 52 52 53 54 64 63 57 55 47 10 8 19 8 37 22 16 19 26 26 16 16 14 13 12 4 6 6 5 2 2 1 6 3 4 5 4 3 5 5 3 9 10 2 8
57 56 55 53 52 51 53 68 65 59 60 40 24 24 29 20 19 20 25 21 17 19 23 8 14 2 8 18 17 8 8 4 5 5 4 4 7 4 4 1 1 4 8 10 4 5 6
51 53 54 53 52 50 50 69 66 62 66 39 33 20 16 11 13 21 19 18 22 25 11 23 12 16 10 15 3 3 1 4 7 3 6 6 4 2 3 2 7 2 1 3 11 9 10
42 51 48 51 49 50 49 67 66 61 65 42 35 23 11 9 11 16 17 24 12 27 21 8 18 7 10 6 4 3 3 2 1 1 4 3 5 3 5 5 4 2 5 7 7 15 11
34 49 50 50 50 56 61 61 63 60 69 43 35 31 14 11 5 18 20 21 19 9 9 8 17 9 3 2 3 6 6 4 4 4 3 5 3 3 3 5 9 4 3 8 5 13 8
27 42 45 43 43 46 67 57 61 62 66 50 33 36 16 11 10 11 14 16 23 16 4 6 14 5 8 2 2 3 4 4 5 8 6 3 2 5 3 3 6 6 5 12 6 12 11
31 35 37 39 50 48 67 57 60 62 68 47 30 33 30 6 3 5 15 8 20 32 11 8 7 8 2 5 3 3 4 6 4 2 5 7 8 4 3 2 6 11 8 10 7 4 10
34 33 36 40 43 64 61 56 60 61 62 48 27 25 21 22 2 9 12 10 9 33 32 28 11 10 13 4 3 2 3 2 5 5 1 4 6 7 9 7 3 26 8 24 8 7 10

GFSGBSN_850_spd_042.txt.gz
Wind_Speed
21 23 24 25 25 23 22 21 21 20 20 19 21 24 25 23 21 20 19 17 17 18 19 19 18 19 15 7 7 7 3 4 10 12 9 7 5 3 3 3 3 10 9 9 6 3 2
22 20 23 24 23 24 24 23 22 21 20 20 18 19 21 23 23 21 20 17 17 18 20 19 19 18 13 9 7 7 4 7 11 12 8 5 2 1 2 5 5 7 10 2 3 1 3
25 26 23 21 24 24 23 23 24 24 21 19 20 19 18 19 22 21 20 17 16 18 19 21 20 19 17 15 8 10 8 9 12 10 6 5 3 3 3 4 2 10 8 6 6 4 2
26 27 27 28 22 23 25 24 26 24 24 21 19 19 18 16 18 20 20 17 16 18 20 21 20 16 11 11 11 14 11 9 12 12 7 4 5 6 3 4 4 8 7 5 4 6 3
26 27 28 27 27 26 22 25 25 25 25 23 21 19 18 16 15 18 19 17 16 18 20 20 15 8 8 7 13 15 15 7 10 9 7 7 5 6 5 8 7 7 5 6 3 6 2
30 31 26 25 27 25 29 23 25 24 22 24 24 22 18 17 14 17 16 16 14 18 20 16 13 7 13 5 6 12 16 12 6 8 5 6 7 8 7 9 9 6 7 5 2 4 6
31 30 32 30 29 25 27 30 22 25 24 21 21 21 21 18 15 14 11 9 7 5 6 10 4 6 2 6 9 11 14 15 9 10 9 8 9 9 8 6 6 4 6 6 1 2 4
36 34 35 34 32 30 27 24 31 21 24 22 19 19 19 18 15 10 9 5 5 5 11 16 21 26 23 8 4 12 15 15 12 14 8 6 10 1 2 5 6 6 6 4 1 2 5
38 37 36 35 36 37 32 29 25 31 23 24 21 17 15 13 13 12 10 9 10 9 8 11 17 16 18 20 13 18 20 19 14 14 12 12 5 5 6 8 8 9 7 3 3 1 6
44 42 40 37 36 34 35 34 28 24 30 23 23 18 13 7 10 10 8 10 7 4 6 6 8 11 14 12 12 21 22 19 8 16 11 10 4 6 6 7 10 11 2 3 5 6 4
43 44 45 45 40 37 34 34 33 28 28 26 23 22 15 16 7 7 7 8 6 6 7 4 5 4 7 19 16 23 23 15 17 10 9 10 9 10 8 10 8 7 1 4 5 6 4
43 43 42 43 45 43 39 35 33 30 26 34 24 24 18 19 21 13 12 12 6 5 9 3 7 8 9 17 12 22 19 14 12 11 10 9 2 4 3 4 7 5 3 4 4 5 6
43 44 43 43 41 41 42 38 34 32 28 30 29 23 23 18 19 16 15 6 6 9 2 5 6 8 14 13 14 20 23 21 16 16 15 13 12 6 6 9 7 9 7 6 6 6 7
44 45 45 43 42 42 40 40 36 34 30 23 33 26 27 24 17 20 14 6 13 8 18 2 3 9 13 15 14 17 23 21 23 19 11 14 12 14 11 12 11 13 11 6 4 5 4
45 45 45 46 44 42 41 40 38 34 31 27 30 31 30 30 26 20 18 14 13 14 8 9 3 8 12 13 10 13 20 24 21 19 14 14 12 6 8 6 9 7 8 1 2 1 4
44 45 44 45 46 44 43 41 40 36 33 28 30 33 35 28 29 26 10 25 17 15 10 9 12 9 12 16 12 15 17 19 22 21 19 7 10 6 7 7 4 5 9 5 4 5 6
47 49 47 44 44 46 45 44 41 39 35 29 29 18 20 32 28 19 12 24 27 20 15 8 11 10 7 11 17 19 14 7 24 21 20 10 9 7 7 11 12 6 6 4 3 3 5
53 48 48 45 46 46 46 46 44 42 39 35 32 7 21 41 18 10 17 32 12 23 19 10 7 6 8 12 16 16 22 16 22 21 20 15 9 8 14 5 2 7 9 10 6 6 3
43 43 43 44 47 51 47 47 49 47 47 44 26 11 25 42 14 13 29 29 27 18 25 14 11 9 6 5 7 17 15 17 16 20 19 13 10 11 10 6 4 8 10 10 6 2 11
46 48 48 46 45 46 47 50 51 54 53 50 21 6 13 34 39 29 29 25 30 29 21 21 11 7 9 6 8 4 12 6 14 21 15 21 13 16 12 13 8 8 12 14 14 7 10
47 45 45 46 48 46 48 53 55 62 59 54 27 9 16 15 20 29 27 24 25 23 32 22 19 15 13 6 5 6 5 7 6 7 8 11 15 16 16 16 15 17 15 14 16 16 13
48 49 50 49 48 50 50 53 63 69 63 49 18 12 28 22 40 32 29 28 29 32 23 24 19 23 13 13 5 2 4 1 6 6 9 8 12 10 12 12 13 15 16 16 18 17 13
51 51 51 51 50 51 52 48 54 72 68 36 29 28 32 21 28 23 24 32 28 25 36 27 24 15 19 20 5 9 8 11 8 2 10 8 9 7 14 10 9 10 14 16 15 13 16
47 50 52 56 54 53 53 53 50 74 73 45 46 28 18 12 17 22 31 31 30 24 26 24 23 18 9 9 2 8 10 6 9 14 11 6 9 6 6 4 8 12 4 16 18 18 17
42 52 58 60 59 55 55 56 51 76 74 47 35 27 23 10 18 22 29 31 28 25 24 27 14 18 13 6 4 5 4 7 6 7 12 12 8 4 5 9 10 5 6 9 12 18 15
25 27 47 60 56 55 54 54 48 74 69 46 37 39 17 15 16 30 20 27 21 19 17 29 18 9 17 4 5 7 8 11 7 5 2 7 7 8 4 7 9 9 13 13 5 16 9
10 27 41 41 55 52 53 51 48 69 68 45 38 37 23 16 18 19 17 21 32 21 16 19 20 11 13 5 4 7 8 10 14 7 6 5 4 11 10 7 6 3 11 15 9 14 3
17 26 39 44 46 46 49 52 61 63 69 48 33 44 23 11 10 5 10 22 27 32 15 19 17 11 8 9 7 7 5 7 11 10 7 9 9 5 7 6 10 15 12 11 12 3 7
35 34 37 40 41 50 46 43 63 61 62 47 33 37 26 8 4 1 8 11 10 36 29 28 17 21 11 8 6 4 2 2 7 10 5 4 7 5 9 6 4 31 18 25 10 9 10

GFSGBSN_850_spd_045.txt.gz
Wind_Speed
23 21 18 18 21 21 20 20 20 21 19 20 19 19 19 22 25 25 21 22 20 19 20 19 19 18 17 8 15 12 9 7 9 11 10 10 10 12 13 4 4 9 8 8 6 2 4
22 20 23 21 17 21 22 21 21 22 23 21 20 20 20 19 20 23 22 21 21 19 19 20 18 17 11 16 6 10 9 8 10 13 10 10 8 6 12 10 8 7 11 4 4 2 8
22 22 22 20 23 19 18 21 22 23 23 22 21 20 20 20 19 19 21 20 20 21 20 20 18 18 13 22 6 8 9 9 11 13 10 9 6 9 6 12 5 12 12 8 7 7 11
24 21 21 22 22 24 25 18 20 22 22 22 22 21 21 20 19 18 18 19 20 20 21 20 18 13 11 10 8 13 12 10 11 13 10 7 8 10 13 9 13 13 14 5 7 9 6
25 24 25 22 20 23 23 27 21 20 23 22 22 22 22 21 19 18 19 18 18 20 21 20 15 6 10 13 13 16 16 12 14 12 10 9 8 14 11 13 14 13 5 7 16 8 14
27 26 24 25 24 22 21 23 25 23 20 22 20 21 22 21 18 18 19 17 16 17 18 15 10 8 15 7 8 14 19 15 16 14 12 13 13 12 14 13 13 9 12 12 6 13 9
27 27 27 27 25 26 26 24 19 25 22 21 20 20 19 20 17 16 16 11 9 6 12 16 5 12 1 6 7 13 20 18 16 17 16 18 12 14 17 14 16 9 10 10 5 5 4
31 31 31 30 29 30 30 27 25 21 27 19 19 20 19 18 15 14 11 6 7 6 13 19 26 26 21 4 6 17 20 19 20 17 18 12 13 15 4 8 8 10 10 12 2 1 7
35 36 34 32 29 29 29 30 29 25 20 27 19 19 19 15 13 16 11 10 8 6 9 20 26 30 24 24 19 21 26 27 20 19 18 15 3 6 7 9 11 10 13 3 8 7 10
37 35 34 34 34 34 30 29 27 27 26 20 26 18 18 12 11 11 13 9 8 4 7 13 9 12 24 20 17 25 30 29 15 20 18 14 13 7 11 11 12 12 12 4 9 11 6
39 37 36 36 34 34 35 33 29 26 25 22 25 22 17 15 7 7 2 7 8 2 7 2 15 3 10 23 12 30 30 32 23 19 14 16 14 12 13 12 10 10 1 6 10 12 14
39 38 38 37 36 35 33 33 34 29 27 24 20 30 20 17 18 14 4 7 10 6 15 6 8 10 12 25 25 17 33 33 27 19 16 17 16 14 16 12 6 8 6 10 10 11 9
40 41 40 38 37 36 35 33 32 33 29 24 22 24 25 18 19 11 8 8 7 13 3 13 9 11 15 15 22 19 27 26 22 21 21 19 15 15 9 8 11 10 13 9 9 6 10
41 40 40 40 39 37 36 35 33 30 31 27 23 21 29 23 21 16 15 8 17 15 29 4 3 12 15 15 23 20 23 24 27 24 14 16 18 20 13 16 14 15 16 7 5 7 6
42 42 41 40 40 40 38 36 33 32 30 27 22 21 27 28 27 21 11 14 24 28 12 28 5 11 14 15 15 23 26 26 28 25 22 16 19 13 19 14 18 18 18 13 4 8 5
44 43 43 44 41 40 40 38 35 32 31 27 27 24 33 31 26 22 6 15 26 26 25 13 27 12 14 16 18 23 24 25 26 28 20 13 10 12 12 11 16 13 13 10 9 6 9
45 46 46 44 42 41 39 40 38 34 32 30 30 16 18 32 28 17 13 20 31 34 25 24 18 24 14 14 20 20 16 12 26 25 21 18 13 11 12 14 16 13 9 9 6 8 6
45 46 46 45 47 43 40 41 40 38 35 36 31 9 18 38 16 14 15 35 38 29 40 20 22 19 19 11 17 21 22 20 12 23 25 22 11 10 16 18 22 15 19 17 10 12 7
46 40 38 37 40 47 42 45 43 43 44 45 20 14 19 39 12 16 28 42 33 30 27 25 19 16 13 14 13 17 17 15 12 20 21 20 12 12 14 10 11 12 13 11 13 9 12
42 37 42 42 41 40 44 47 46 48 49 51 18 8 14 38 38 25 32 38 36 40 32 30 21 20 18 13 14 5 18 10 10 14 21 20 16 19 14 18 15 18 18 17 16 9 12
42 42 40 40 39 41 41 44 49 49 55 57 26 9 14 14 22 32 33 22 34 36 35 33 25 26 24 19 16 15 7 9 3 10 5 14 22 21 22 20 15 20 20 21 21 18 17
40 41 42 43 44 43 45 46 50 61 62 56 16 14 29 19 34 30 27 32 32 33 31 31 27 26 22 20 15 14 8 3 6 12 13 17 16 21 23 21 18 18 18 19 19 18 19
43 45 45 46 46 46 46 47 50 52 75 34 27 36 32 23 27 23 25 33 39 31 37 40 31 21 22 19 8 7 3 4 3 7 11 17 13 17 16 17 18 17 18 20 18 18 16
46 47 48 49 48 47 49 49 51 51 79 36 44 41 20 13 17 24 31 32 35 34 32 35 31 25 30 19 4 7 3 1 4 7 11 9 12 13 10 3 18 10 16 20 21 21 19
43 44 44 47 50 52 52 51 52 54 64 59 46 38 23 11 20 25 28 25 33 38 23 32 31 27 25 10 6 7 4 3 7 12 11 12 9 9 9 12 14 18 14 11 15 17 18
43 45 42 44 47 48 52 54 52 54 52 57 50 50 29 13 14 34 21 29 19 21 20 28 35 23 15 7 7 15 11 10 10 5 11 12 12 10 7 14 18 14 16 16 14 15 16
27 45 43 41 46 49 51 54 51 52 49 56 38 46 36 17 20 16 15 21 32 27 18 21 32 21 20 10 8 13 13 14 17 14 5 3 5 12 12 8 8 10 13 15 15 11 6
11 17 34 44 51 53 51 55 51 51 47 59 42 48 32 21 9 17 17 18 28 32 16 19 21 16 12 11 9 9 7 11 12 16 15 9 8 6 9 13 16 6 9 12 17 24 9
6 10 8 27 51 54 55 55 54 54 57 51 38 40 35 11 4 4 5 8 18 29 35 26 26 21 16 10 7 7 5 4 11 9 12 14 11 7 9 6 10 21 18 26 23 19 13

GFSGBSN_850_spd_048.txt.gz
Wind_Speed
22 20 22 23 20 18 19 20 21 21 21 22 21 20 19 19 19 19 21 23 21 22 23 22 21 21 20 8 16 13 12 12 10 11 11 11 12 14 17 18 11 10 14 12 10 7 8
21 20 20 21 22 24 19 18 19 19 21 22 22 22 20 20 19 19 19 19 20 20 21 22 21 20 14 16 8 10 9 12 11 13 12 13 13 14 13 18 14 14 11 17 11 14 3
20 19 18 20 22 21 23 23 19 19 21 21 22 22 22 20 19 19 20 20 20 19 20 19 19 19 16 29 9 7 10 10 10 14 13 11 12 11 15 14 17 14 15 16 6 13 3
20 22 22 21 19 18 21 22 26 24 20 21 20 21 22 21 20 19 20 19 19 19 20 18 16 15 15 12 11 17 16 13 12 14 14 10 8 13 17 18 21 15 18 16 8 12 6
23 23 23 22 22 22 20 18 23 24 26 20 20 21 21 22 21 20 19 18 17 18 19 17 13 6 15 12 21 19 19 17 14 14 14 12 9 15 18 16 14 16 14 12 12 8 4
24 24 23 24 24 23 23 22 21 20 22 26 19 20 20 21 21 19 19 17 14 20 16 8 9 8 18 16 12 15 20 18 17 15 15 15 13 12 14 13 14 15 13 9 7 5 9
26 26 25 25 24 25 26 23 24 23 20 19 22 19 18 19 22 16 17 15 10 5 9 11 7 12 17 7 5 12 20 18 15 20 16 19 13 15 20 19 19 15 15 11 15 9 7
28 28 28 28 28 27 26 27 27 25 23 19 18 19 17 18 21 16 11 5 7 8 14 21 28 28 28 14 8 14 21 20 20 18 19 16 18 19 20 13 11 12 14 15 6 8 4
30 30 30 31 32 31 28 26 24 24 25 22 16 21 18 17 19 17 13 15 9 13 10 27 31 32 34 28 26 20 26 27 19 18 19 19 19 14 11 10 11 12 15 7 9 9 10
34 33 33 34 32 29 29 28 27 24 22 21 22 17 19 14 14 6 14 9 10 8 7 15 19 12 33 27 25 32 26 28 16 20 21 19 22 12 11 11 13 14 9 11 6 9 10
36 35 35 34 32 31 30 28 27 28 25 21 18 17 18 14 7 6 4 7 5 2 7 7 13 8 12 34 8 28 32 32 25 22 12 19 20 17 12 14 14 12 4 9 9 11 12
39 38 36 34 33 32 30 28 27 26 26 23 18 18 15 19 16 13 5 7 8 5 11 6 10 10 11 26 33 21 35 37 33 22 21 21 22 17 14 15 13 8 8 10 12 11 9
41 40 38 36 34 34 32 29 27 26 25 25 21 19 20 17 18 9 9 5 6 12 8 12 10 10 14 15 22 24 24 26 23 21 20 21 22 19 14 18 13 9 9 8 6 7 8
42 41 40 37 36 35 34 32 28 26 24 25 24 20 23 20 19 13 11 5 14 14 27 5 10 15 15 15 19 22 22 23 25 24 14 17 14 23 12 16 14 13 14 7 6 3 7
44 42 41 39 37 36 35 33 31 27 25 22 23 24 23 19 23 15 8 13 19 23 18 28 13 9 14 15 15 18 22 22 24 25 18 16 22 19 18 13 17 15 14 16 7 7 7
41 40 40 41 39 38 36 34 31 30 26 24 26 26 27 22 26 19 7 21 28 24 25 24 25 18 12 16 16 17 23 17 24 25 20 17 12 19 22 21 19 17 11 10 9 4 4
42 41 41 40 39 39 39 37 36 33 28 25 28 13 15 24 26 18 10 18 30 34 34 25 25 20 20 23 15 19 21 21 22 20 20 20 14 12 13 12 16 12 16 9 15 10 6
44 44 43 43 42 42 42 42 38 35 32 32 28 5 19 35 16 8 17 36 33 33 35 30 25 23 23 20 19 18 21 17 15 20 25 24 4 9 15 16 16 18 17 16 8 8 4
46 47 46 44 43 42 42 43 43 40 40 41 17 11 22 43 12 15 23 35 34 28 32 26 30 27 25 20 18 10 20 18 10 12 18 18 14 10 14 12 17 16 15 13 13 10 12
44 44 43 43 43 42 42 45 44 43 45 48 17 7 14 36 35 25 26 35 33 41 31 37 25 24 24 20 18 9 12 14 7 8 12 1 14 13 10 15 14 15 15 18 13 5 8
41 32 35 38 41 41 38 42 38 45 48 54 23 9 16 14 22 27 25 20 27 26 36 35 28 27 20 20 16 18 16 15 9 11 3 6 15 17 15 18 18 20 21 20 20 15 14
35 36 35 35 34 39 39 44 42 44 48 59 15 11 30 15 32 27 24 29 32 23 26 35 27 27 22 20 18 16 15 11 12 11 11 8 10 12 15 16 20 13 22 19 19 21 19
37 38 38 38 39 38 40 43 45 48 59 35 32 41 30 23 23 21 25 33 32 26 26 36 31 25 20 21 19 31 15 5 9 9 13 10 6 11 12 15 18 19 18 19 15 15 12
41 42 43 43 44 43 43 44 46 50 56 25 36 36 13 13 16 22 32 32 32 27 26 31 37 28 30 18 9 14 13 13 16 7 1 2 11 6 4 1 22 10 13 15 14 15 18
42 43 44 47 47 46 47 49 49 51 55 56 27 37 20 10 18 23 28 26 31 30 23 27 36 43 37 7 6 7 4 11 10 14 7 3 4 2 5 10 12 16 16 11 11 16 19
45 45 43 45 48 51 51 50 52 53 52 54 28 47 35 15 13 34 17 26 17 17 18 27 41 36 35 10 5 9 5 7 10 8 10 10 9 6 2 8 17 9 14 22 14 14 11
31 33 33 40 45 49 50 52 52 53 52 52 46 42 32 17 30 22 11 19 26 20 13 18 32 24 13 12 8 5 4 15 11 13 5 7 8 9 9 7 5 6 14 23 19 8 12
32 32 34 36 42 51 48 51 52 52 50 51 37 46 37 13 16 16 11 10 23 27 14 16 17 15 7 8 8 6 7 11 13 10 10 7 7 6 6 6 13 1 10 18 9 22 15
19 26 28 30 41 50 45 47 48 51 49 49 36 39 42 24 5 7 14 15 18 24 22 23 23 12 11 7 7 6 4 6 11 10 13 7 9 4 7 3 14 21 18 14 14 11 17